Flag for Russia Weather past 2 weeks in Samara, Russia

Now
64 °F

Overcast.


Feels Like: 64 °F
Forecast: 69 / 89 °F
Wind: 6 mph from East

Location: Samara

Current Time: May 30, 2015 at 12:29:26 AM

Latest Report: May 30, 2015 at 12:00 AM


Visibility: N/A

Pressure: 29.95 "Hg

Humidity: 64%

Dew point: 52 °F

Location of SamaraLocation

Historic Weather in Samara — Graph

°F

Samara temperature yesterday

Maximum temperature yesterday: 88 °F (at 2:30 PM)
Minimum temperature yesterday: 66 °F (at 3:00 AM)
Average temperature yesterday: 74 °F

Past Weeks' High & Low Weather Summary

 TemperatureHumidityPressure
High88 °F (May 28, 2:00 PM)88% (May 14, 11:30 PM)30.12 "Hg (May 14, 11:30 PM)
Low37 °F (May 18, 4:30 AM)15% (May 27, 1:30 PM)29.42 "Hg (May 17, 4:00 AM)
Average63 °F55%29.85 "Hg
* Reported May 14 11:00 PM — May 29 11:30 PM, Samara, Weather by CustomWeather, © 2015

Note: Actual official high and low records may vary slightly from our data, if they occured in-between our weather recording intervals... More about our weather records

Advertising

Samara weather history for previous 24 hours

 ConditionsComfort  
Time TempWeatherWind HumidityBarometerVisibility
11:30 PM
Fri, May 29
66 °FOvercast.6 mph64%29.95 "HgN/A
11:00 PM66 °FOvercast.6 mph64%29.95 "HgN/A
10:30 PM66 °FOvercast.8 mph64%29.98 "HgN/A
10:00 PM66 °FOvercast.8 mph64%29.95 "HgN/A
9:30 PM68 °FCloudy.10 mph60%29.98 "HgN/A
9:00 PM72 °FMore clouds than sun.1 mph53%29.95 "HgN/A
8:30 PM75 °FMore clouds than sun.1 mph44%29.95 "HgN/A
8:00 PM75 °FMore clouds than sun.3 mph44%29.95 "HgN/A
7:30 PM73 °FMore clouds than sun.6 mph50%29.95 "HgN/A
7:00 PM75 °FMore clouds than sun.6 mph44%29.95 "HgN/A
6:30 PM75 °FMore clouds than sun.10 mph44%29.95 "HgN/A
6:00 PM75 °FMore clouds than sun.13 mph47%29.95 "HgN/A
5:30 PM77 °FMore clouds than sun.13 mph39%29.98 "HgN/A
5:00 PM79 °FThunderstorms. Broken clouds.13 mph37%29.98 "HgN/A
4:30 PM82 °FThunderstorms. Broken clouds.6 mph32%29.95 "HgN/A
4:00 PM84 °FThunderstorms. Broken clouds.6 mph31%29.95 "HgN/A
3:30 PM86 °FThunderstorms. Broken clouds.10 mph27%29.95 "HgN/A
3:00 PM88 °FBroken clouds.10 mph27%29.95 "HgN/A
2:30 PM88 °FThunderstorms. Broken clouds.8 mph24%29.95 "HgN/A
2:00 PM86 °FBroken clouds.8 mph27%29.95 "HgN/A
1:30 PM86 °FBroken clouds.8 mph29%29.95 "HgN/A
1:00 PM86 °FBroken clouds.10 mph27%29.95 "HgN/A
12:30 PM84 °FBroken clouds.8 mph31%29.95 "HgN/A
12:00 PM84 °FBroken clouds.8 mph31%29.98 "HgN/A
11:30 AM82 °FBroken clouds.8 mph32%29.98 "HgN/A
11:00 AM82 °FBroken clouds.10 mph35%29.95 "HgN/A
10:30 AM79 °FBroken clouds.10 mph45%29.95 "HgN/A
10:00 AM79 °FBroken clouds.10 mph39%29.95 "HgN/A
9:30 AM75 °FBroken clouds.13 mph47%29.95 "HgN/A
9:00 AM73 °FBroken clouds.13 mph50%29.95 "HgN/A
8:30 AM72 °FBroken clouds.13 mph53%29.95 "HgN/A
8:00 AM70 °FBroken clouds.13 mph57%29.95 "HgN/A
7:30 AM68 °FBroken clouds.10 mph60%29.95 "HgN/A
7:00 AM70 °FBroken clouds.13 mph57%29.95 "HgN/A
6:30 AM68 °FBroken clouds.10 mph60%29.95 "HgN/A
6:00 AM68 °FBroken clouds.10 mph56%29.95 "HgN/A
5:30 AM68 °FBroken clouds.10 mph56%29.95 "HgN/A
5:00 AM66 °FOvercast.10 mph60%29.95 "HgN/A
4:30 AM66 °FMostly cloudy.6 mph56%29.92 "HgN/A
4:00 AM66 °FMostly cloudy.8 mph60%29.92 "HgN/A
3:30 AM66 °FMostly cloudy.8 mph60%29.92 "HgN/A
3:00 AM66 °FMostly cloudy.6 mph56%29.92 "HgN/A
2:00 AM68 °FMostly cloudy.10 mph53%29.92 "HgN/A
1:30 AM70 °FMostly cloudy.10 mph50%29.92 "HgN/A
1:00 AM70 °FMostly cloudy.10 mph50%29.92 "HgN/A
12:30 AM70 °FOvercast.10 mph50%29.92 "HgN/A
12:00 AM72 °FOvercast.10 mph44%29.92 "HgN/A
Weather by CustomWeather, © 2015

See weather overviewHow to use our weather pages